Orbital Elements at Epoch 2459000.5 (2020-May-31.0) TDB
Reference: JPL 15 (heliocentric ecliptic J2000)
Element | Value | Uncertainty (1-sigma) | Units |
e | .1746035882198083 | 4.1435e-08 | |
a | 3.140448862139869 | 2.6661e-08 | au |
q | 2.592115222189433 | 1.2716e-07 | au |
i | 16.50314665892412 | 6.019e-06 | deg |
node | 43.2852012725139 | 1.7142e-05 | deg |
peri | 53.23711394561062 | 2.5438e-05 | deg |
M | 149.7146844678243 | 2.1088e-05 | deg |
tp | 2458155.127892790135 (2018-Feb-05.62789279) | 0.00011368 | TDB |
period | 2032.75957650605 5.57 | 2.5885e-05 7.087e-08 | d yr |
n | .1770991533680414 | 2.2552e-09 | deg/d |
Q | 3.688782502090303 | 3.1316e-08 | au |
|
| | Orbit Determination Parameters
Additional Information
|